星链-1226 (STARLINK-1226 )

导读 | 豆包AI

STARLINK-1226是美国太空探索技术公司星链星座的卫星,于北京时间2020年2月17日发射升空,属于星链网络早期部署批次。它依托猎鹰九号火箭入轨,为全球提供低延迟高速互联网服务,尤其覆盖偏远地区,助力星链逐步构建起覆盖全球的低轨卫星通信网络。

基本信息
目录编号:
45229
目录名称:
STARLINK-1226
国际标识:
2020-012BD
轨道中心:
EARTH
卫星名称:
星链-1226
卫星全名:
星链-1226 (STARLINK-1226 )
卫星状态:
在轨 (已飞行2217 天)
发射日期:
2020-02-17 UTC
国别 :
美国 (US)
星等 :
--
轨道信息
数据来源 国际轨道数据 AOE轨道数据
星历时间 2026-03-14T07:53:54+0800
6小时前
查看轨道信息
2026-03-11T15:00:00+0800
2天前
查看轨道信息
半长轴 6852.632km 6853.223km
偏心率 0.0001345 0.0001632
轨道倾角 53.161° 53.160°
近地点辐角 83.438° 85.002°
升交点赤经 338.617° 351.180°
平近点角 276.677° 129.379°
近地点 473.573km 473.967km
远地点 475.417km 476.205km
周期 94.091分钟 94.103分钟
每日圈数 15.304413 15.302435
详细信息
固有亮度:
5
最大亮度:
2.5
卫星平台:
Starlink V1.0
覆盖范围:
全球
运营商:
太空探索技术公司
运营商所在国:
美国
制造商(研发单位):
太空探索技术公司
制造商所在国:
美国
使用方式:
暂无
卫星简介
星链(Starlink)计划是由太空探索技术公司(SpaceX)提出的一个巨型低轨卫星互联网星座项目,计划在2019年至2024年间在太空搭建由约1.2万颗卫星组成的“星链”网络,其中1584颗将部署在地球上空550千米处的近地轨道,并从2020年开始工作。该卫星仍在工作。
2D轨道图
3D轨道图
轨道高度分析图
轨道倾角分析图
轨道综合分析图
查看轨道综合分析图